FW9036 Weather Reports


time (UTC)temp
F
wind
direction
speed
knots
gust
knots
rain 1hr
in
rain 24hr
in
rain mn
in
humidity
%
barometer
mb
20260903063041 79 303 0.0 0.0 0.00 0.00 0.00 98 1013.6
20260903062536 79 303 0.0 0.0 0.00 0.00 0.00 98 1013.8
20260903062031 79 303 0.0 0.0 0.00 0.00 0.00 98 1013.8
20260903061527 79 303 0.0 0.0 0.00 0.00 0.00 98 1013.7
20260903061027 79 123 0.0 0.0 0.00 0.00 0.00 98 1014.1
20260903060526 79 123 0.0 0.0 0.00 0.00 0.00 98 1014.1
20260903060021 79 211 0.0 0.0 0.00 0.00 0.00 98 1014.0
20260903055519 79 211 0.0 0.0 0.00 0.00 0.00 98 1014.0
20260903055018 79 211 0.0 0.0 0.00 0.00 0.00 98 1014.1
20260903054513 79 211 0.0 0.0 0.00 0.00 0.00 98 1014.3
20260903054008 79 211 0.0 0.0 0.00 0.00 0.00 98 1014.5
20260903053503 80 242 0.0 0.0 0.00 0.00 0.00 98 1014.5
20260903052959 80 107 0.0 0.9 0.00 0.00 0.00 98 1014.4
20260903052455 80 85 0.0 0.0 0.00 0.00 0.00 98 1014.3
20260903051950 80 85 0.0 0.0 0.00 0.00 0.00 98 1014.4
20260903051445 80 198 0.0 0.0 0.00 0.00 0.00 98 1014.5
20260903050941 80 133 0.9 0.9 0.00 0.00 0.00 98 1014.5
20260903050439 79 85 0.0 0.0 0.00 0.00 0.00 98 1014.5
20260903045934 79 85 0.0 0.0 0.00 0.00 0.00 98 1014.7
20260903045430 79 98 0.0 0.0 0.00 0.00 0.00 98 1014.6
20260903044926 79 308 0.0 0.0 0.00 0.00 0.00 98 1014.6
20260903044427 79 308 0.0 0.0 0.00 0.00 0.00 98 1014.5
20260903043923 79 137 0.0 0.0 0.00 0.00 0.00 98 1014.4
20260903043419 79 98 0.0 0.0 0.00 0.00 0.00 98 1014.6
20260903042917 79 98 0.0 0.0 0.00 0.00 0.00 98 1014.8
20260903042413 79 87 0.0 0.0 0.00 0.00 0.00 98 1014.5
20260903041908 79 123 0.0 0.0 0.00 0.00 0.00 98 1014.6
20260903041404 79 91 0.0 0.0 0.00 0.00 0.00 98 1014.4
20260903040900 79 98 0.0 0.0 0.00 0.00 0.00 98 1014.3
20260903040359 79 85 0.0 0.0 0.00 0.00 0.00 98 1014.5
20260903035855 79 96 0.0 0.0 0.00 0.38 0.38 98 1014.6
20260903035350 79 25 0.0 0.0 0.00 0.38 0.38 98 1014.7
20260903034845 79 144 0.0 0.0 0.00 0.38 0.38 98 1014.7
20260903034341 79 144 0.0 0.9 0.00 0.38 0.38 98 1014.7
20260903033836 79 20 0.0 0.9 0.00 0.38 0.38 98 1014.7
20260903033331 79 223 0.0 0.0 0.00 0.38 0.38 98 1014.7
20260903032830 79 186 0.0 0.0 0.00 0.38 0.38 98 1014.6
20260903032327 79 193 0.0 1.7 0.00 0.38 0.38 98 1014.5
20260903031821 79 183 0.0 0.9 0.00 0.38 0.38 98 1014.8
20260903031321 79 107 0.0 0.0 0.00 0.38 0.38 98 1014.8
20260903030817 79 127 0.0 0.9 0.00 0.38 0.38 98 1014.8
20260903030313 79 41 0.0 0.0 0.00 0.38 0.38 98 1014.9
20260903025808 80 41 0.0 0.0 0.00 0.38 0.38 98 1014.9
20260903025306 80 205 0.0 0.0 0.00 0.38 0.38 98 1014.9
20260903024758 80 6 0.0 0.0 0.00 0.38 0.38 98 1014.8
20260903024257 80 56 0.0 0.0 0.00 0.38 0.38 98 1015.0
20260903023752 79 98 0.0 0.0 0.00 0.38 0.38 98 1015.0
20260903023249 79 94 0.0 0.0 0.00 0.38 0.38 98 1015.0
20260903022749 79 98 0.0 0.9 0.00 0.38 0.38 98 1014.9
20260903022247 79 85 0.0 0.0 0.00 0.38 0.38 98 1015.0
20260903021747 79 105 0.0 0.0 0.02 0.38 0.38 98 1015.0
20260903021242 79 105 0.0 0.0 0.02 0.38 0.38 98 1014.8
20260903020737 79 105 0.0 0.0 0.00 0.37 0.37 98 1015.0
20260903020231 78 116 0.0 0.0 0.00 0.37 0.37 98 1015.0
20260903015727 78 98 0.0 0.0 0.00 0.37 0.37 98 1015.0
20260903015222 78 116 0.0 0.0 0.00 0.37 0.37 98 1015.0
20260903014718 78 116 0.0 0.0 0.00 0.37 0.37 98 1014.8
20260903014217 78 116 0.0 0.0 0.00 0.37 0.37 97 1014.8
20260903013712 78 116 0.0 0.0 0.00 0.37 0.37 97 1014.8
20260903013211 78 116 0.0 0.0 0.00 0.37 0.37 97 1015.0
20260903012709 78 110 0.0 0.0 0.00 0.37 0.37 97 1014.9
20260903012204 78 110 0.0 0.0 0.00 0.37 0.37 97 1014.9
20260903011658 78 110 0.0 0.0 0.00 0.37 0.37 97 1014.8
20260903011152 78 137 0.0 0.0 0.00 0.37 0.37 97 1014.8
20260903010648 78 31 0.0 0.0 0.00 0.37 0.37 97 1014.9
20260903010147 78 31 0.0 0.0 0.00 0.37 0.37 97 1014.7
20260903005647 78 315 0.0 0.9 0.00 0.37 0.37 97 1014.6
20260903005142 78 175 0.9 0.9 0.00 0.37 0.37 97 1014.5
20260903004637 78 127 0.0 0.0 0.00 0.37 0.37 97 1014.6
20260903004132 78 180 0.0 0.0 0.00 0.37 0.37 97 1014.7
20260903003628 78 180 0.0 0.0 0.00 0.37 0.37 97 1014.5
20260903003123 78 180 0.0 0.0 0.00 0.37 0.37 97 1014.5
20260903002618 78 122 0.0 0.0 0.00 0.37 0.37 97 1014.5
20260903002118 78 31 0.0 0.0 0.00 0.37 0.37 97 1014.4
20260903001613 78 18 0.0 0.0 0.00 0.37 0.37 96 1014.4
20260903001107 78 18 0.0 0.0 0.00 0.37 0.37 96 1014.6
20260903000603 78 303 0.0 0.0 0.00 0.37 0.37 96 1014.4
20260902235601 78 274 0.0 0.0 0.00 0.37 0.37 96 1014.2
20260902235056 78 153 0.0 0.0 0.00 0.37 0.37 96 1014.2
20260902234550 78 18 0.0 0.0 0.00 0.37 0.37 96 1014.3
20260902234049 78 18 0.0 0.9 0.00 0.37 0.37 96 1014.5
20260902233544 78 229 0.0 0.9 0.00 0.37 0.37 95 1014.3
20260902233038 78 193 0.0 0.0 0.00 0.37 0.37 95 1014.5
20260902232538 78 189 0.9 0.9 0.00 0.37 0.37 95 1014.1
20260902232032 78 70 0.0 0.0 0.00 0.37 0.37 95 1014.4
20260902231527 78 42 0.0 0.9 0.00 0.37 0.37 95 1014.4
20260902231027 78 190 0.0 0.9 0.00 0.37 0.37 95 1014.4
20260902230521 78 211 0.0 0.0 0.00 0.37 0.37 95 1014.5
20260902230020 77 25 0.0 0.9 0.00 0.37 0.37 95 1014.5
20260902225516 77 205 0.0 0.9 0.00 0.37 0.37 94 1014.7
20260902225009 77 111 0.0 1.7 0.00 0.37 0.37 94 1014.7
20260902224508 77 107 0.0 0.9 0.00 0.37 0.37 93 1014.7
20260902224005 77 18 1.7 2.6 0.02 0.37 0.37 91 1014.8
20260902223501 78 176 0.0 1.7 0.12 0.37 0.37 91 1014.3
20260902223000 79 15 2.6 3.5 0.09 0.37 0.37 90 1014.7
20260902222459 80 122 0.9 2.6 0.00 0.35 0.35 91 1014.7
20260902221958 80 27 1.7 2.6 0.00 0.35 0.35 93 1014.9
20260902221457 80 43 0.0 0.9 0.00 0.35 0.35 94 1014.7
20260902220954 80 271 0.0 0.0 0.00 0.35 0.35 94 1014.7
20260902220453 80 271 0.0 0.0 0.00 0.35 0.35 94 1014.6
20260902215942 80 211 0.0 0.9 0.00 0.35 0.35 95 1014.7
20260902215438 80 123 0.0 0.0 0.00 0.35 0.35 95 1014.6
20260902214934 80 105 0.0 0.0 0.00 0.35 0.35 94 1014.7
20260902214432 80 14 0.0 0.0 0.00 0.35 0.35 94 1014.5
20260902213927 80 85 0.0 0.0 0.00 0.35 0.35 95 1014.7
20260902213423 80 198 0.0 0.9 0.00 0.35 0.35 95 1014.6
20260902212921 80 127 0.0 0.0 0.00 0.35 0.35 95 1014.8
20260902212418 79 236 0.0 0.9 0.00 0.35 0.35 95 1014.6
20260902211914 79 123 0.0 1.7 0.00 0.35 0.35 94 1014.5
20260902211410 79 327 0.0 0.9 0.00 0.35 0.35 94 1014.6
20260902210905 78 47 0.0 0.9 0.00 0.35 0.35 94 1014.8
20260902210404 78 116 0.0 0.9 0.00 0.35 0.35 94 1014.6
20260902205903 78 56 0.0 0.9 0.00 0.35 0.35 94 1014.9
20260902205357 78 216 0.0 1.7 0.02 0.35 0.35 94 1014.9
20260902204854 78 123 1.7 2.6 0.21 0.35 0.35 93 1014.8
20260902204353 77 99 0.9 3.5 0.83 0.35 0.35 92 1014.8
20260902203849 78 82 1.7 2.6 1.65 0.32 0.32 91 1014.6
20260902203344 79 74 1.7 5.2 1.28 0.21 0.21 89 1015.0
20260902202843 81 81 5.2 5.2 0.26 0.04 0.04 86 1014.8
20260902202334 84 84 1.7 4.3 0.00 0.00 0.00 77 1014.6
20260902201831 86 76 2.6 3.5 0.00 0.00 0.00 77 1014.5
20260902201330 86 37 0.0 3.5 0.00 0.00 0.00 77 1014.4
20260902200826 86 87 1.7 4.3 0.00 0.00 0.00 77 1014.4
20260902200321 86 80 2.6 6.1 0.00 0.00 0.00 75 1014.5
20260902195816 87 193 3.5 7.8 0.00 0.00 0.00 75 1014.4
20260902195315 87 61 2.6 4.3 0.00 0.00 0.00 72 1014.5
20260902194810 88 58 3.5 4.3 0.00 0.00 0.00 72 1014.8
20260902194305 88 92 2.6 7.0 0.00 0.00 0.00 72 1014.6
20260902193800 89 43 5.2 5.2 0.00 0.00 0.00 70 1014.4
20260902193256 89 42 5.2 5.2 0.00 0.00 0.00 69 1014.6
20260902192755 91 96 2.6 5.2 0.00 0.00 0.00 67 1014.6
20260902192254 89 67 1.7 4.3 0.00 0.00 0.00 69 1014.5
20260902191753 89 83 1.7 4.3 0.00 0.00 0.00 70 1014.7
20260902191249 89 72 3.5 5.2 0.00 0.00 0.00 70 1015.0
20260902190744 89 75 3.5 6.1 0.00 0.00 0.00 68 1014.8
20260902190243 90 33 5.2 5.2 0.00 0.00 0.00 67 1015.0
20260902185739 90 80 2.6 5.2 0.00 0.00 0.00 66 1014.9
20260902185235 91 77 3.5 6.1 0.00 0.00 0.00 65 1014.9
20260902184731 92 48 5.2 5.2 0.00 0.00 0.00 64 1014.9
20260902184226 91 104 2.6 6.1 0.00 0.00 0.00 65 1015.2
20260902183722 91 104 2.6 8.7 0.00 0.00 0.00 65 1015.0
20260902183218 92 108 2.6 4.3 0.00 0.00 0.00 63 1014.8
20260902182714 92 63 3.5 7.0 0.00 0.00 0.00 63 1015.1
20260902182210 91 155 2.6 6.1 0.00 0.00 0.00 65 1015.1
20260902181705 92 86 2.6 7.0 0.00 0.00 0.00 64 1015.0
20260902181200 91 72 2.6 6.1 0.00 0.00 0.00 65 1015.1
20260902180700 91 104 3.5 4.3 0.00 0.00 0.00 64 1015.1
20260902180155 91 94 2.6 3.5 0.00 0.00 0.00 63 1015.2
20260902175656 91 116 1.7 5.2 0.00 0.00 0.00 64 1015.1
20260902175151 91 58 4.3 4.3 0.00 0.00 0.00 62 1015.2
20260902174647 90 49 1.7 5.2 0.00 0.00 0.00 64 1015.2
20260902174143 90 65 4.3 8.7 0.00 0.00 0.00 65 1015.1
20260902173638 90 136 2.6 4.3 0.00 0.00 0.00 66 1015.3
20260902173133 89 84 1.7 7.0 0.00 0.00 0.00 66 1015.3
20260902172632 91 95 3.5 8.7 0.00 0.00 0.00 65 1015.4
20260902172127 90 112 2.6 5.2 0.00 0.00 0.00 66 1015.2
20260902171622 91 8 1.7 3.5 0.00 0.00 0.00 67 1015.4
20260902171118 90 81 1.7 4.3 0.00 0.00 0.00 65 1015.4
20260902170614 90 87 1.7 5.2 0.00 0.00 0.00 66 1015.5
20260902170109 90 29 6.1 6.1 0.00 0.00 0.00 66 1015.4
20260902165608 89 111 2.6 7.0 0.00 0.00 0.00 68 1015.6
20260902165103 89 66 4.3 4.3 0.00 0.00 0.00 67 1015.6
20260902164558 90 101 2.6 4.3 0.00 0.00 0.00 66 1015.7
20260902164057 89 74 4.3 4.3 0.00 0.00 0.00 68 1015.8
20260902163553 89 102 1.7 5.2 0.00 0.00 0.00 67 1015.9
20260902163051 90 87 3.5 5.2 0.00 0.00 0.00 68 1015.9
20260902162545 90 346 2.6 9.6 0.00 0.00 0.00 67 1015.9
20260902162040 90 97 1.7 5.2 0.00 0.00 0.00 66 1015.9
20260902161540 89 68 2.6 4.3 0.00 0.00 0.00 68 1016.3
20260902161036 90 34 2.6 5.2 0.00 0.00 0.00 66 1016.4
20260902160532 90 29 1.7 5.2 0.00 0.00 0.00 67 1016.0
20260902160027 90 48 3.5 5.2 0.00 0.00 0.00 68 1016.2
20260902155520 90 140 2.6 3.5 0.00 0.00 0.00 70 1016.3
20260902155019 89 75 2.6 4.3 0.00 0.00 0.00 69 1016.3
20260902154515 88 87 1.7 6.1 0.00 0.00 0.00 70 1016.3
20260902154009 87 50 0.9 6.1 0.00 0.00 0.00 70 1016.5
20260902153508 88 75 2.6 3.5 0.00 0.00 0.00 70 1016.4
20260902153004 88 69 2.6 8.7 0.00 0.00 0.00 68 1016.5
20260902152501 87 79 1.7 4.3 0.00 0.00 0.00 71 1016.7
20260902151955 87 68 1.7 3.5 0.00 0.00 0.00 71 1016.4
20260902151451 87 54 2.6 5.2 0.00 0.00 0.00 71 1016.6
20260902150950 87 41 6.1 6.1 0.00 0.00 0.00 70 1016.4
20260902150446 87 65 2.6 6.1 0.00 0.00 0.00 71 1016.6
20260902145946 87 98 1.7 4.3 0.00 0.00 0.00 70 1016.6
20260902145441 87 84 2.6 4.3 0.00 0.00 0.00 71 1016.4
20260902144936 87 64 1.7 6.1 0.00 0.00 0.00 72 1016.5
20260902144432 86 103 1.7 2.6 0.00 0.00 0.00 72 1016.3
20260902143932 87 47 3.5 4.3 0.00 0.00 0.00 72 1016.3
20260902143427 87 98 2.6 5.2 0.00 0.00 0.00 73 1016.2
20260902142922 87 90 2.6 3.5 0.00 0.00 0.00 73 1016.1
20260902142419 87 136 1.7 4.3 0.00 0.00 0.00 75 1016.2
20260902141914 86 106 0.9 2.6 0.00 0.00 0.00 75 1016.0
20260902141409 86 77 1.7 4.3 0.00 0.00 0.00 74 1016.1
20260902140908 86 98 1.7 2.6 0.00 0.00 0.00 74 1016.2
20260902140404 86 90 0.9 2.6 0.00 0.00 0.00 77 1016.6
20260902135904 86 50 1.7 4.3 0.00 0.00 0.00 77 1016.3
20260902135400 85 26 2.6 4.3 0.00 0.00 0.00 77 1016.1
20260902134858 85 126 1.7 2.6 0.00 0.00 0.00 81 1016.2
20260902134354 84 49 2.6 3.5 0.00 0.00 0.00 81 1016.1
20260902133849 84 91 0.9 4.3 0.00 0.00 0.00 82 1016.1
20260902133349 84 112 1.7 2.6 0.00 0.00 0.00 84 1016.0
20260902132844 83 89 1.7 2.6 0.00 0.00 0.00 86 1016.3
20260902132339 83 250 0.0 1.7 0.00 0.00 0.00 88 1016.3
20260902131835 82 70 1.7 2.6 0.00 0.00 0.00 89 1016.1
20260902131332 82 321 2.6 2.6 0.00 0.00 0.00 89 1016.0
20260902130830 82 92 2.6 3.5 0.00 0.00 0.00 89 1016.0
20260902130326 82 88 0.0 1.7 0.00 0.00 0.00 90 1015.8
20260902125822 82 303 2.6 2.6 0.00 0.00 0.00 90 1016.0
20260902125317 81 53 2.6 3.5 0.00 0.00 0.00 91 1016.1
20260902124813 81 127 0.0 3.5 0.00 0.00 0.00 91 1015.9
20260902124309 81 284 0.9 1.7 0.00 0.00 0.00 92 1016.1
20260902123804 81 143 0.0 2.6 0.00 0.00 0.00 92 1016.2
20260902123300 81 130 0.0 1.7 0.00 0.00 0.00 93 1016.1
20260902122759 80 142 1.7 1.7 0.00 0.00 0.00 93 1015.9
20260902122254 80 97 0.0 2.6 0.00 0.00 0.00 94 1016.0
20260902121754 80 319 1.7 1.7 0.00 0.00 0.00 94 1016.0
20260902121249 80 64 0.9 1.7 0.00 0.00 0.00 94 1016.0
20260902120745 80 84 0.9 2.6 0.00 0.00 0.00 94 1015.9
20260902120241 80 149 0.0 2.6 0.00 0.00 0.00 95 1016.1
20260902115736 80 319 0.9 1.7 0.00 0.00 0.00 95 1015.7
20260902115232 79 36 0.0 2.6 0.00 0.00 0.00 96 1015.8
20260902114728 79 265 0.0 1.7 0.00 0.00 0.00 96 1015.9
20260902114223 79 123 0.0 0.9 0.00 0.00 0.00 96 1015.8
20260902113718 79 199 0.0 0.9 0.00 0.00 0.00 96 1015.8
20260902113213 79 250 0.0 0.9 0.00 0.00 0.00 96 1016.0
20260902112713 79 260 1.7 1.7 0.00 0.00 0.00 96 1015.7
20260902112210 79 123 0.0 0.9 0.00 0.00 0.00 96 1015.7
20260902111705 79 98 0.0 0.9 0.00 0.00 0.00 96 1015.5
20260902111201 79 2 0.0 0.9 0.00 0.00 0.00 96 1015.7
20260902110656 79 85 0.0 0.9 0.00 0.00 0.00 96 1015.6
20260902110152 79 267 0.0 2.6 0.00 0.00 0.00 96 1015.4
20260902105652 79 46 1.7 1.7 0.00 0.00 0.00 96 1015.5
20260902105148 79 36 0.0 0.0 0.00 0.00 0.00 96 1015.6
20260902104643 79 111 0.0 0.9 0.00 0.00 0.00 96 1015.6
20260902104138 79 232 0.0 0.9 0.00 0.00 0.00 96 1015.5
20260902103637 79 223 0.0 0.9 0.00 0.00 0.00 96 1015.4
20260902103132 79 22 0.9 1.7 0.00 0.00 0.00 97 1015.3
20260902102629 79 106 0.0 0.9 0.00 0.00 0.00 97 1015.3
20260902102126 79 172 0.0 0.9 0.00 0.00 0.00 97 1015.3
20260902101621 79 199 0.0 1.7 0.00 0.00 0.00 97 1015.2
20260902101120 79 43 0.0 0.9 0.00 0.00 0.00 97 1015.3
20260902100615 79 282 0.9 1.7 0.00 0.00 0.00 97 1015.1
20260902100110 78 72 0.0 0.9 0.00 0.00 0.00 97 1015.2
20260902095609 78 161 0.0 0.9 0.00 0.00 0.00 97 1015.4
20260902095108 79 123 0.0 0.0 0.00 0.00 0.00 97 1015.0
20260902094604 78 31 0.0 1.7 0.00 0.00 0.00 97 1014.9
20260902094059 78 177 0.0 0.9 0.00 0.00 0.00 96 1014.9
20260902093553 78 223 0.0 0.0 0.00 0.00 0.00 97 1015.0
20260902093048 78 311 0.9 0.9 0.00 0.00 0.00 96 1014.8
20260902092538 78 56 0.0 0.0 0.00 0.00 0.00 96 1015.0
20260902092033 78 278 0.0 0.0 0.00 0.00 0.00 96 1014.9
20260902091528 78 13 0.0 0.0 0.00 0.00 0.00 96 1014.8
20260902091024 78 290 0.0 0.9 0.00 0.00 0.00 96 1014.9
20260902090520 79 110 0.0 0.9 0.00 0.00 0.00 96 1014.8
20260902090019 79 152 0.0 0.0 0.00 0.00 0.00 96 1014.7
20260902085519 79 205 0.0 0.9 0.00 0.00 0.00 96 1014.6
20260902085014 79 25 0.0 0.0 0.00 0.00 0.00 96 1014.7
20260902084510 79 236 0.0 1.7 0.00 0.00 0.00 96 1014.7
20260902084005 79 31 0.0 0.9 0.00 0.00 0.00 96 1014.8
20260902083501 79 183 0.0 0.0 0.00 0.00 0.00 96 1014.9
20260902082955 79 183 0.0 0.0 0.00 0.00 0.00 95 1015.0
20260902082451 79 183 0.0 0.0 0.00 0.00 0.00 95 1015.1
20260902081947 79 193 0.0 0.0 0.00 0.00 0.00 95 1015.2
20260902081443 79 250 0.0 0.0 0.00 0.00 0.00 95 1014.9
20260902080938 79 3 0.0 0.0 0.00 0.00 0.00 95 1015.0
20260902080434 80 123 0.0 0.0 0.00 0.00 0.00 95 1015.1
20260902075933 80 6 0.0 1.7 0.00 0.00 0.00 95 1015.0
20260902075430 80 43 0.0 0.9 0.00 0.00 0.00 95 1015.0
20260902074925 80 10 0.0 0.0 0.00 0.00 0.00 95 1015.0
20260902074420 80 10 0.0 0.0 0.00 0.00 0.00 95 1015.0
20260902073915 80 31 0.0 0.0 0.00 0.00 0.00 95 1014.9
20260902073411 80 140 0.0 0.0 0.00 0.00 0.00 95 1015.0
20260902072907 80 41 0.0 0.9 0.00 0.00 0.00 95 1015.0
20260902072403 80 285 0.0 0.9 0.00 0.00 0.00 95 1015.1
20260902071859 80 25 0.0 0.0 0.00 0.00 0.00 95 1015.0
20260902071358 80 31 0.0 0.0 0.00 0.00 0.00 95 1014.9
20260902070855 80 186 0.0 0.0 0.00 0.00 0.00 94 1014.7
20260902070350 80 50 0.0 0.0 0.00 0.00 0.00 94 1015.1
20260902065848 80 6 0.0 0.0 0.00 0.00 0.00 94 1014.8
20260902065344 80 56 0.0 0.9 0.00 0.00 0.00 94 1015.0
20260902064839 80 18 0.0 0.9 0.00 0.00 0.00 94 1014.8
20260902064335 80 110 0.0 0.0 0.00 0.00 0.00 94 1014.9
20260902063825 80 137 0.0 0.0 0.00 0.00 0.00 94 1015.0
20260902063324 80 137 0.0 0.0 0.00 0.00 0.00 94 1014.9